LRSB Weather Reports


Display with metric or nautical units.
time (UTC)temp
F
wind
direction
speed
MPH
gust
MPH
rain 1hr
in
rain 24hr
in
rain mn
in
humidity
%
barometer
mb
20260505151819 79 70 6.0 0.0 0.00 0.00 0.00 18 1012.0
20260505150311 79 70 6.0 0.0 0.00 0.00 0.00 18 1012.0
20260505140311 79 30 7.0 0.0 0.00 0.00 0.00 20 1013.0
20260505130311 79 6.0 0.0 0.00 0.00 0.00 21 1013.0
20260505124811 79 90 7.0 0.0 0.00 0.00 0.00 21 1014.0
20260505123311 79 90 7.0 0.0 0.00 0.00 0.00 21 1014.0
20260505121811 79 3.0 0.0 0.00 0.00 0.00 23 1014.0
20260505120316 77 30 6.0 0.0 0.00 0.00 0.00 21 1014.0
20260505114818 77 30 6.0 0.0 0.00 0.00 0.00 21 1014.0
20260505113341 77 30 6.0 0.0 0.00 0.00 0.00 21 1014.0
20260505111811 77 70 6.0 0.0 0.00 0.00 0.00 22 1015.0
20260505110311 77 70 6.0 0.0 0.00 0.00 0.00 22 1015.0
20260505101812 75 330 8.0 0.0 0.00 0.00 0.00 27 1016.0
20260505100311 75 330 8.0 0.0 0.00 0.00 0.00 27 1016.0
20260505094812 75 80 5.0 0.0 0.00 0.00 0.00 25 1016.0
20260505093311 75 80 5.0 0.0 0.00 0.00 0.00 25 1016.0
20260505091811 73 5.0 0.0 0.00 0.00 0.00 31 1016.0
20260505090311 73 5.0 0.0 0.00 0.00 0.00 31 1016.0
20260505084811 73 2.0 0.0 0.00 0.00 0.00 25 1016.0
20260505083311 73 2.0 0.0 0.00 0.00 0.00 25 1016.0
20260505081811 72 10 5.0 0.0 0.00 0.00 0.00 31 1017.0
20260505080311 72 10 5.0 0.0 0.00 0.00 0.00 31 1017.0
20260505074826 68 30 3.0 0.0 0.00 0.00 0.00 38 1017.0
20260505073311 68 30 3.0 0.0 0.00 0.00 0.00 38 1017.0
20260505071811 66 1.0 0.0 0.00 0.00 0.00 43 1017.0
20260505070311 66 1.0 0.0 0.00 0.00 0.00 43 1017.0
20260505064811 64 1.0 0.0 0.00 0.00 0.00 46 1017.0
20260505063311 64 1.0 0.0 0.00 0.00 0.00 46 1017.0
20260505061811 61 2.0 0.0 0.00 0.00 0.00 52 1017.0
20260505060311 61 2.0 0.0 0.00 0.00 0.00 52 1017.0
20260505054811 57 2.0 0.0 0.00 0.00 0.00 59 1017.0
20260505053311 57 2.0 0.0 0.00 0.00 0.00 59 1017.0
20260505051811 54 60 2.0 0.0 0.00 0.00 0.00 67 1017.0
20260505050311 54 60 2.0 0.0 0.00 0.00 0.00 67 1017.0
20260505040310 48 110 1.0 0.0 0.00 0.00 0.00 76 1017.0
20260505034811 45 90 2.0 0.0 0.00 0.00 0.00 81 1017.0
20260505033311 45 90 2.0 0.0 0.00 0.00 0.00 81 1017.0
20260505031811 46 2.0 0.0 0.00 0.00 0.00 76 1017.0
20260505030311 46 2.0 0.0 0.00 0.00 0.00 76 1017.0
20260505024811 46 70 3.0 0.0 0.00 0.00 0.00 76 1017.0
20260505023311 46 70 3.0 0.0 0.00 0.00 0.00 76 1017.0
20260505021811 48 60 3.0 0.0 0.00 0.00 0.00 76 1017.0
20260505020311 48 60 3.0 0.0 0.00 0.00 0.00 76 1017.0
20260505014810 50 60 3.0 0.0 0.00 0.00 0.00 71 1017.0
20260505013311 50 60 3.0 0.0 0.00 0.00 0.00 71 1017.0
20260505011811 50 50 3.0 0.0 0.00 0.00 0.00 71 1017.0
20260505010311 50 50 3.0 0.0 0.00 0.00 0.00 71 1017.0
20260505004811 50 2.0 0.0 0.00 0.00 0.00 71 1017.0
20260505003311 50 2.0 0.0 0.00 0.00 0.00 71 1017.0
20260505001811 52 110 5.0 0.0 0.00 0.00 0.00 67 1017.0
20260505000311 52 110 5.0 0.0 0.00 0.00 0.00 67 1017.0
20260504234811 52 120 3.0 0.0 0.00 0.00 0.00 67 1017.0
20260504233311 52 120 3.0 0.0 0.00 0.00 0.00 67 1017.0
20260504231811 52 250 5.0 0.0 0.00 0.00 0.00 62 1017.0
20260504230311 52 250 5.0 0.0 0.00 0.00 0.00 62 1017.0
20260504224811 52 180 3.0 0.0 0.00 0.00 0.00 67 1017.0
20260504223311 52 180 3.0 0.0 0.00 0.00 0.00 67 1017.0
20260504221834 55 260 11.0 0.0 0.00 0.00 0.00 59 1017.0
20260504220311 55 260 11.0 0.0 0.00 0.00 0.00 59 1017.0
20260504214811 52 250 5.0 0.0 0.00 0.00 0.00 67 1017.0
20260504213327 52 250 5.0 0.0 0.00 0.00 0.00 67 1017.0
20260504211810 52 250 7.0 0.0 0.00 0.00 0.00 67 1017.0
20260504210311 52 250 7.0 0.0 0.00 0.00 0.00 67 1017.0
20260504204811 54 260 9.0 0.0 0.00 0.00 0.00 63 1017.0
20260504203312 54 260 9.0 0.0 0.00 0.00 0.00 63 1017.0
20260504201810 55 260 9.0 0.0 0.00 0.00 0.00 59 1017.0
20260504200311 55 260 9.0 0.0 0.00 0.00 0.00 59 1017.0
20260504194811 55 250 9.0 0.0 0.00 0.00 0.00 59 1016.0
20260504193311 55 250 9.0 0.0 0.00 0.00 0.00 59 1016.0
20260504191811 59 280 6.0 0.0 0.00 0.00 0.00 48 1016.0
20260504190311 59 280 6.0 0.0 0.00 0.00 0.00 48 1016.0
20260504184811 57 260 9.0 0.0 0.00 0.00 0.00 55 1016.0
20260504183321 57 260 9.0 0.0 0.00 0.00 0.00 55 1016.0
20260504181811 61 260 6.0 0.0 0.00 0.00 0.00 48 1016.0
20260504180311 61 260 6.0 0.0 0.00 0.00 0.00 48 1016.0
20260504174811 66 310 7.0 0.0 0.00 0.00 0.00 37 1015.0
20260504173311 66 310 7.0 0.0 0.00 0.00 0.00 37 1015.0
20260504171811 72 340 8.0 0.0 0.00 0.00 0.00 29 1015.0
20260504170311 72 340 8.0 0.0 0.00 0.00 0.00 29 1015.0
20260504160312 73 340 8.0 0.0 0.00 0.00 0.00 25 1015.0